Карточка аэропорта USPP

Внимание!
Информация на этой странице в стадии наполнения.
Если вы не увидели какой-то информации, или заметили неточность - пожалуйста сообщите нам!
Спасибо!
Команда RU-STAFF
Название аэропортаБольшое Савино
Название аэропорта (англ.)Bolshoe Savino
Превышение404 ft. (123.1 m.)
Координаты57°55.866', 56°1.6019999999999'
Высота перехода3700ft
Эшелон переходаQNH>1013:FL50; 1013>QNH>977:FL60; 977>QNH:FL70;
Коды ответчика5610-5617
Зона ОрВДЕкатеринбург РПИ (USSV)
Данные METARUSPP 200300Z 27002MPS 9999 FEW009 BKN015CB 20/18 Q0997 R21/190055 TEMPO BKN011CB RMK QFE737
Проноз погоды (TAF)USPP 200159Z 2003/2103 30003G12MPS 9999 BKN016CB TEMPO 2003/2012 -TSRA BECMG 2016/2017 23003G08MPS
NOTAMshow/hide NOTAM
AWOS   TABLE

Информация о ВПП

ВПП Длина ВПП (м.) Покрытие Курс ВПП Частота ILS
213204Железобетон211109.9
033204Железобетон31 

Диспетчерские позиции

Позывной Наименование органа УВД Частота
USPP_TWRПермь-Старт124.000
USPP_R_APPПермь-Круг121.700
USPP_APPПермь-Подход127.100



Спутниковое изображение